TimeAST,TemperatureF,Dew PointF,Humidity,Sea Level PressureIn,VisibilityMPH,Wind Direction,Wind SpeedMPH,Gust SpeedMPH,PrecipitationIn,Events,Conditions,WindDirDegrees,DateUTC
12:00 AM,78.8,68.0,69,30.01,6.2,East,11.5,-,N/A,,Scattered Clouds,100,2014-01-03 04:00:00
1:00 AM,78.8,68.0,69,30.01,6.2,East,15.0,-,N/A,,Mostly Cloudy,90,2014-01-03 05:00:00
2:00 AM,78,67,60,30.01,19,East,13.8,,,,Scattered Clouds,80,2014-01-03 06:00:00
2:00 AM,78.8,66.2,65,30.01,6.2,East,13.8,-,N/A,,Partly Cloudy,80,2014-01-03 06:00:00
3:00 AM,78.8,68.0,69,29.98,6.2,East,10.4,-,N/A,,Partly Cloudy,80,2014-01-03 07:00:00
4:00 AM,77.0,68.0,74,29.98,6.2,East,9.2,-,N/A,,Partly Cloudy,80,2014-01-03 08:00:00
5:00 AM,78,69,67,29.98,19,ENE,9.2,,,,Mostly Cloudy,70,2014-01-03 09:00:00
5:00 AM,77.0,69.8,78,29.98,6.2,ENE,9.2,-,N/A,,Mostly Cloudy,70,2014-01-03 09:00:00
6:00 AM,77.0,69.8,78,29.98,6.2,ENE,12.7,-,N/A,,Partly Cloudy,70,2014-01-03 10:00:00
7:00 AM,77.0,69.8,78,30.01,6.2,East,10.4,-,N/A,,Scattered Clouds,80,2014-01-03 11:00:00
8:00 AM,78.8,69.8,74,30.01,6.2,East,10.4,-,N/A,,Scattered Clouds,80,2014-01-03 12:00:00
9:02 AM,78.8,71.6,78,30.04,6.2,East,11.5,-,N/A,,Scattered Clouds,90,2014-01-03 13:02:00
10:00 AM,78.8,71.6,78,30.04,6.2,East,10.4,24.2,N/A,,Scattered Clouds,100,2014-01-03 14:00:00
11:00 AM,78,73,79,30.05,19,East,10.4,,,Rain,Light Rain Showers,90,2014-01-03 15:00:00
11:00 AM,77.0,71.6,83,30.04,6.2,East,10.4,-,N/A,,Scattered Clouds,90,2014-01-03 15:00:00
12:00 PM,82.4,71.6,70,30.01,6.2,East,11.5,-,N/A,,Scattered Clouds,100,2014-01-03 16:00:00
1:00 PM,82.4,71.6,70,30.01,6.2,ESE,10.4,-,N/A,,Scattered Clouds,120,2014-01-03 17:00:00
2:00 PM,82,71,61,29.99,28,SE,9.2,,,,Partly Cloudy,140,2014-01-03 18:00:00
2:00 PM,82.4,69.8,66,29.98,6.2,ESE,9.2,-,N/A,,Partly Cloudy,120,2014-01-03 18:00:00
3:00 PM,82.4,69.8,66,29.98,6.2,East,9.2,-,N/A,,Partly Cloudy,100,2014-01-03 19:00:00
4:00 PM,82.4,68.0,62,29.98,6.2,East,8.1,-,N/A,,Partly Cloudy,100,2014-01-03 20:00:00
5:00 PM,82,69,57,30.00,25,East,6.9,,,,Mostly Cloudy,100,2014-01-03 21:00:00
5:00 PM,82.4,69.8,66,29.98,6.2,East,6.9,-,N/A,,Mostly Cloudy,100,2014-01-03 21:00:00
5:14 PM,80.6,69.8,70,29.98,6.2,ENE,6.9,-,N/A,Rain,Rain Showers,70,2014-01-03 21:14:00
5:29 PM,78.8,69.8,74,30.01,-9999.0,East,8.1,-,N/A,Rain,Rain,90,2014-01-03 21:29:00
5:45 PM,77.0,69.8,78,30.01,4.3,ENE,5.8,-,N/A,Rain,Light Rain Showers,70,2014-01-03 21:45:00
6:00 PM,77.0,71.6,83,30.01,6.2,ENE,5.8,-,N/A,Rain,Light Rain Showers,60,2014-01-03 22:00:00
6:30 PM,77.0,71.6,83,30.01,4.3,ENE,6.9,-,N/A,Rain,Rain,70,2014-01-03 22:30:00
6:45 PM,75.2,71.6,89,30.01,6.2,East,4.6,-,N/A,,Scattered Clouds,100,2014-01-03 22:45:00
7:00 PM,75.2,71.6,89,30.01,6.2,SE,5.8,-,N/A,,Partly Cloudy,130,2014-01-03 23:00:00
8:00 PM,77,72,82,30.04,12,East,4.6,,,,Mostly Cloudy,100,2014-01-04 00:00:00
8:00 PM,77.0,73.4,89,30.04,6.2,East,4.6,-,N/A,Rain,Light Rain Showers,100,2014-01-04 00:00:00
9:00 PM,77.0,71.6,83,30.05,6.2,East,9.2,-,N/A,Rain,Light Rain Showers,100,2014-01-04 01:00:00
10:00 PM,78.8,71.6,78,30.06,6.2,East,15.0,-,N/A,,Partly Cloudy,90,2014-01-04 02:00:00
11:00 PM,78,71,72,30.07,19,East,13.8,,,Rain,Light Rain Showers,90,2014-01-04 03:00:00
11:00 PM,78.8,69.8,74,30.06,6.2,East,13.8,-,N/A,,Scattered Clouds,90,2014-01-04 03:00:00